Location: Fort Wayne
(41.1310°N, 85.1290°W)
Time: 06:07:36
(UTC-04:00)

COSMOS 2428 - Visible Passes

Search period start: 01 September 2015 00:00
Search period end: 11 September 2015 00:00
Orbit: 845 x 857 km, 71.0° (Epoch: 01 September)

Date Brightness Start Highest point End Pass type
(mag) Time Alt. Az. Time Alt. Az. Time Alt. Az.
01 Sep 4.0 03:10:25 36° NNE 03:10:25 36° NNE 03:13:44 10° NNE visible
01 Sep 4.5 04:52:25 17° NW 04:53:04 17° NW 04:56:36 10° N visible
02 Sep 4.3 02:58:28 32° NNE 02:58:28 32° NNE 03:01:24 10° NNE visible
02 Sep 4.6 04:40:28 17° NW 04:40:43 17° NW 04:44:15 10° N visible
03 Sep 4.5 02:46:29 28° NNE 02:46:29 28° NNE 02:49:03 10° NNE visible
03 Sep 4.6 04:28:29 17° NW 04:28:29 17° NW 04:31:55 10° N visible
04 Sep 4.7 02:34:29 25° NNE 02:34:29 25° NNE 02:36:43 10° NNE visible
04 Sep 4.7 04:16:29 17° NW 04:16:29 17° NW 04:19:35 10° N visible
05 Sep 4.8 02:22:28 22° NNE 02:22:28 22° NNE 02:24:23 10° NNE visible
05 Sep 4.8 04:04:28 17° NW 04:04:28 17° NW 04:07:15 10° N visible
06 Sep 5.0 02:10:25 20° NNE 02:10:25 20° NNE 02:12:02 10° NNE visible
06 Sep 4.8 03:52:25 16° NW 03:52:25 16° NW 03:54:55 10° N visible
07 Sep 5.1 01:58:23 18° NNE 01:58:23 18° NNE 01:59:42 10° NNE visible
07 Sep 4.9 03:40:22 16° NNW 03:40:22 16° NNW 03:42:35 10° N visible
08 Sep 5.2 01:46:18 16° NNE 01:46:18 16° NNE 01:47:21 10° NNE visible
08 Sep 5.0 03:28:17 15° NNW 03:28:17 15° NNW 03:30:14 10° N visible
09 Sep 5.3 01:34:12 14° NNE 01:34:12 14° NNE 01:35:01 10° NNE visible
09 Sep 5.1 03:16:11 15° NNW 03:16:11 15° NNW 03:17:54 10° N visible
10 Sep 5.4 01:22:06 13° NNE 01:22:06 13° NNE 01:22:40 10° NNE visible
10 Sep 5.2 03:04:04 14° NNW 03:04:04 14° NNW 03:05:34 10° N visible
